• In Uzbekistan
  • List of Countries
  • For 7 days
  • Water Temperature
  • Satellite Maps
  • Weather Map
  • Weather Widgets
  • user-avatar
    Login

    Hourly Weather Lanzhou

    Today, 23 September, Sunday

    Time Temperature Precipitation Wind Pressure Humidity
    00:00 +17°C° 0 mm 2 mps 626 mmHg 46%
    01:00 +16°C° 0 mm 1 mps 626 mmHg 47%
    02:00 +16°C° 0 mm 1 mps 626 mmHg 48%
    03:00 +15°C° 0 mm 1 mps 625 mmHg 49%
    04:00 +15°C° 0 mm 1 mps 625 mmHg 50%
    05:00 +15°C° 0 mm 1 mps 625 mmHg 49%
    06:00 +16°C° 0 mm 1 mps 625 mmHg 47%
    07:00 +16°C° 0 mm 1 mps 625 mmHg 43%
    08:00 +19°C° 0 mm 1 mps 625 mmHg 42%
    09:00 +20°C° 0 mm 1 mps 625 mmHg 42%
    10:00 +21°C° 0 mm 1 mps 625 mmHg 41%
    11:00 +21°C° 0 mm 2 mps 625 mmHg 40%
    12:00 +24°C° 0 mm 2 mps 624 mmHg 40%
    13:00 +25°C° 0 mm 3 mps 624 mmHg 39%
    14:00 +25°C° 0 mm 4 mps 624 mmHg 40%
    15:00 +25°C° 0 mm 4 mps 623 mmHg 42%
    16:00 +25°C° 0 mm 5 mps 623 mmHg 44%
    17:00 +23°C° 0.1 mm 5 mps 623 mmHg 50%
    18:00 +22°C° 0.1 mm 5 mps 623 mmHg 56%
    19:00 +21°C° 0.1 mm 4 mps 622 mmHg 61%
    20:00 +21°C° 0.2 mm 4 mps 623 mmHg 64%
    21:00 +20°C° 0.2 mm 4 mps 623 mmHg 67%
    22:00 +20°C° 0.2 mm 3 mps 623 mmHg 70%
    23:00 +19°C° 0.1 mm 3 mps 623 mmHg 72%

    Tomorrow, 24 September, Monday

    Time Temperature Precipitation Wind Pressure Humidity
    00:00 +19°C° 0.1 mm 2 mps 622 mmHg 74%
    01:00 +18°C° 0.1 mm 2 mps 622 mmHg 76%
    02:00 +18°C° 0 mm 2 mps 622 mmHg 77%
    03:00 +18°C° 0 mm 2 mps 621 mmHg 78%
    04:00 +17°C° 0 mm 2 mps 621 mmHg 78%
    05:00 +18°C° 0 mm 1 mps 621 mmHg 78%
    06:00 +19°C° 0 mm 1 mps 621 mmHg 77%
    07:00 +19°C° 0 mm 1 mps 621 mmHg 77%
    08:00 +20°C° 0 mm 1 mps 622 mmHg 72%
    09:00 +20°C° 0 mm 2 mps 622 mmHg 67%
    10:00 +21°C° 0 mm 2 mps 622 mmHg 62%
    11:00 +23°C° 0 mm 2 mps 622 mmHg 58%
    12:00 +24°C° 0 mm 3 mps 621 mmHg 54%
    13:00 +23°C° 0 mm 4 mps 621 mmHg 50%
    14:00 +23°C° 0 mm 4 mps 621 mmHg 51%
    15:00 +23°C° 0 mm 4 mps 620 mmHg 52%
    16:00 +23°C° 0 mm 5 mps 620 mmHg 53%
    17:00 +22°C° 0.1 mm 5 mps 620 mmHg 57%
    18:00 +21°C° 0.1 mm 4 mps 620 mmHg 62%
    19:00 +20°C° 0.1 mm 4 mps 620 mmHg 66%
    20:00 +19°C° 0.2 mm 4 mps 621 mmHg 68%
    21:00 +19°C° 0.2 mm 3 mps 621 mmHg 71%
    22:00 +18°C° 0.2 mm 2 mps 621 mmHg 73%
    23:00 +18°C° 0 mm 2 mps 621 mmHg 74%

    Day after tomorrow, 25 September, Tuesday

    Time Temperature Precipitation Wind Pressure Humidity
    00:00 +17°C° 0 mm 2 mps 620 mmHg 76%
    01:00 +17°C° 0 mm 2 mps 620 mmHg 77%
    02:00 +18°C° 0 mm 1 mps 620 mmHg 78%
    03:00 +18°C° 0 mm 1 mps 620 mmHg 79%
    04:00 +16°C° 0 mm 1 mps 620 mmHg 80%
    05:00 +16°C° 0 mm 1 mps 620 mmHg 80%
    06:00 +16°C° 0 mm 1 mps 620 mmHg 80%
    07:00 +16°C° 0 mm 0 mps 620 mmHg 79%
    08:00 +17°C° 0 mm 0 mps 621 mmHg 74%
    09:00 +20°C° 0 mm 1 mps 621 mmHg 69%
    10:00 +20°C° 0 mm 1 mps 621 mmHg 64%
    11:00 +22°C° 0 mm 1 mps 621 mmHg 58%
    12:00 +23°C° 0 mm 1 mps 621 mmHg 53%
    13:00 +24°C° 0 mm 2 mps 621 mmHg 48%
    14:00 +24°C° 0 mm 2 mps 621 mmHg 46%
    15:00 +25°C° 0 mm 3 mps 621 mmHg 45%
    16:00 +25°C° 0 mm 4 mps 620 mmHg 44%
    17:00 +23°C° 0 mm 4 mps 620 mmHg 49%
    18:00 +22°C° 0 mm 4 mps 620 mmHg 54%
    19:00 +21°C° 0 mm 4 mps 621 mmHg 59%
    20:00 +20°C° 0 mm 4 mps 621 mmHg 62%
    21:00 +19°C° 0 mm 3 mps 621 mmHg 66%
    22:00 +19°C° 0 mm 3 mps 621 mmHg 69%
    23:00 +18°C° 0 mm 2 mps 621 mmHg 70%

    26 September, Wednesday

    Time Temperature Precipitation Wind Pressure Humidity
    00:00 +18°C° 0 mm 2 mps 621 mmHg 72%
    01:00 +18°C° 0 mm 2 mps 620 mmHg 74%
    02:00 +17°C° 0.3 mm 2 mps 620 mmHg 75%
    03:00 +17°C° 0.3 mm 2 mps 620 mmHg 77%
    04:00 +17°C° 0.3 mm 2 mps 620 mmHg 78%
    05:00 +17°C° 0.2 mm 2 mps 620 mmHg 79%
    06:00 +18°C° 0.2 mm 1 mps 621 mmHg 79%
    07:00 +18°C° 0.2 mm 1 mps 621 mmHg 79%
    08:00 +18°C° 0.1 mm 1 mps 621 mmHg 74%
    09:00 +19°C° 0.1 mm 1 mps 622 mmHg 69%
    10:00 +20°C° 0.1 mm 1 mps 622 mmHg 64%
    11:00 +20°C° 0.1 mm 2 mps 622 mmHg 60%
    12:00 +21°C° 0.1 mm 2 mps 622 mmHg 57%
    13:00 +23°C° 0.1 mm 2 mps 621 mmHg 53%
    14:00 +22°C° 0.3 mm 3 mps 621 mmHg 52%
    15:00 +22°C° 0.3 mm 3 mps 621 mmHg 52%
    16:00 +22°C° 0.3 mm 4 mps 621 mmHg 52%
    17:00 +21°C° 0.4 mm 4 mps 622 mmHg 56%
    18:00 +20°C° 0.4 mm 4 mps 622 mmHg 59%
    19:00 +19°C° 0.4 mm 4 mps 622 mmHg 63%
    20:00 +19°C° 0.1 mm 4 mps 623 mmHg 64%
    21:00 +18°C° 0.1 mm 4 mps 623 mmHg 64%
    22:00 +18°C° 0.1 mm 4 mps 624 mmHg 65%
    23:00 +17°C° 0.1 mm 4 mps 623 mmHg 65%

    27 September, Thursday

    Time Temperature Precipitation Wind Pressure Humidity
    00:00 +15°C° 0.1 mm 4 mps 623 mmHg 64%
    01:00 +15°C° 0.1 mm 4 mps 623 mmHg 64%
    02:00 +14°C° 0 mm 3 mps 622 mmHg 63%
    03:00 +14°C° 0 mm 3 mps 622 mmHg 62%
    04:00 +15°C° 0 mm 2 mps 622 mmHg 61%
    05:00 +14°C° 0 mm 2 mps 623 mmHg 61%
    06:00 +14°C° 0 mm 2 mps 623 mmHg 60%
    07:00 +14°C° 0 mm 2 mps 623 mmHg 60%
    08:00 +15°C° 0 mm 2 mps 624 mmHg 56%
    09:00 +16°C° 0 mm 2 mps 624 mmHg 52%
    10:00 +17°C° 0 mm 3 mps 624 mmHg 48%
    11:00 +18°C° 0 mm 3 mps 624 mmHg 45%
    12:00 +19°C° 0 mm 3 mps 624 mmHg 42%
    13:00 +20°C° 0 mm 3 mps 624 mmHg 40%
    14:00 +20°C° 0 mm 4 mps 624 mmHg 39%
    15:00 +20°C° 0 mm 4 mps 623 mmHg 38%
    16:00 +21°C° 0 mm 5 mps 623 mmHg 37%
    17:00 +19°C° 0 mm 5 mps 624 mmHg 39%
    18:00 +17°C° 0 mm 5 mps 624 mmHg 41%
    19:00 +16°C° 0 mm 5 mps 624 mmHg 43%
    20:00 +17°C° 0 mm 4 mps 624 mmHg 43%
    21:00 +15°C° 0 mm 4 mps 625 mmHg 42%
    22:00 +16°C° 0 mm 3 mps 625 mmHg 41%
    23:00 +16°C° 0 mm 3 mps 624 mmHg 41%

    28 September, Friday

    Time Temperature Precipitation Wind Pressure Humidity
    00:00 +14°C° 0 mm 3 mps 624 mmHg 41%
    01:00 +15°C° 0 mm 2 mps 624 mmHg 40%
    02:00 +15°C° 0 mm 2 mps 623 mmHg 40%
    03:00 +15°C° 0 mm 2 mps 623 mmHg 41%
    04:00 +14°C° 0 mm 2 mps 623 mmHg 41%
    05:00 +14°C° 0 mm 2 mps 623 mmHg 40%
    06:00 +14°C° 0 mm 1 mps 623 mmHg 40%
    07:00 +14°C° 0 mm 1 mps 623 mmHg 40%
    08:00 +15°C° 0 mm 2 mps 623 mmHg 39%
    09:00 +16°C° 0 mm 2 mps 624 mmHg 38%
    10:00 +17°C° 0 mm 2 mps 624 mmHg 37%
    11:00 +18°C° 0 mm 3 mps 624 mmHg 36%
    12:00 +19°C° 0 mm 3 mps 623 mmHg 36%
    13:00 +20°C° 0 mm 4 mps 623 mmHg 35%
    14:00 +20°C° 0 mm 5 mps 623 mmHg 35%
    15:00 +20°C° 0 mm 6 mps 623 mmHg 34%
    16:00 +18°C° 0 mm 7 mps 623 mmHg 34%
    17:00 +17°C° 0 mm 7 mps 624 mmHg 34%
    18:00 +16°C° 0 mm 6 mps 624 mmHg 34%
    19:00 +15°C° 0 mm 6 mps 624 mmHg 34%
    20:00 +14°C° 0 mm 5 mps 625 mmHg 32%
    21:00 +14°C° 0 mm 5 mps 625 mmHg 31%
    22:00 +14°C° 0 mm 4 mps 625 mmHg 29%
    23:00 +13°C° 0 mm 4 mps 625 mmHg 30%
    Show more